WetterOnline ( https://www.wetteronline.de )

Wetter aktuell Ulm

Aktuelles Wetter: Ulm-Mähringen (592m)

6-stündlich | Neueste Meldungen
Ortszeit Temperatur Wetter
Mo, 19.10. 20:00 5.2° C wolkenlos
Mo, 19.10. 14:00 10.1° C bewölkt
Mo, 19.10. 8:00 4.8° C bedeckt
Mo, 19.10. 2:00 5.1° C bedeckt
So, 18.10. 20:00 6.2° C bedeckt
So, 18.10. 14:00 8.1° C bedeckt
So, 18.10. 8:00 5.2° C bedeckt
So, 18.10. 2:00 5.3° C bedeckt
Ortszeit Temperatur Wetter
Di, 20.10. 0:00 1.9° C fast wolkenlos
Mo, 19.10. 23:50 1.9° C fast wolkenlos
Mo, 19.10. 23:40 1.8° C leicht bewölkt
Mo, 19.10. 23:30 1.8° C leicht bewölkt
Mo, 19.10. 23:20 1.8° C leicht bewölkt
Mo, 19.10. 23:10 2.5° C leicht bewölkt
Mo, 19.10. 23:00 2.7° C wolkig
Mo, 19.10. 22:30 3.4° C wolkig
Mo, 19.10. 22:00 3.5° C wolkig
Mo, 19.10. 21:30 3.7° C leicht bewölkt
Mo, 19.10. 21:00 3.3° C fast wolkenlos
Ortszeit Relative Feuchte Sichtweite
Mo, 19.10. 20:00 86% 26 km
Mo, 19.10. 14:00 57% 45 km
Mo, 19.10. 8:00 96% 5.0 km
Mo, 19.10. 2:00 97% 6 km
So, 18.10. 20:00 89% 15 km
So, 18.10. 14:00 72% 60 km
So, 18.10. 8:00 92% 30 km
So, 18.10. 2:00 95% 9 km
Ortszeit Relative Feuchte Sichtweite
Di, 20.10. 0:00 95% 10 km
Mo, 19.10. 23:50 95% -
Mo, 19.10. 23:40 96% -
Mo, 19.10. 23:30 92% -
Mo, 19.10. 23:20 92% -
Mo, 19.10. 23:10 94% -
Mo, 19.10. 23:00 93% 13 km
Mo, 19.10. 22:30 91% 16 km
Mo, 19.10. 22:00 91% 15 km
Mo, 19.10. 21:30 90% 17 km
Mo, 19.10. 21:00 92% 13 km
Ortszeit Niederschlagsmenge Niederschlagsart
Mo, 19.10. 20:00 0.0 l/m2 in 12 Std. -
Mo, 19.10. 14:00 0.0 l/m2 in 6 Std. -
Mo, 19.10. 8:00 0.0 l/m2 in 12 Std. -
Mo, 19.10. 2:00 0.0 l/m2 in 6 Std. -
So, 18.10. 20:00 0.0 l/m2 in 12 Std. -
So, 18.10. 14:00 0.0 l/m2 in 6 Std. -
So, 18.10. 8:00 0.1 l/m2 in 12 Std. Sprühregen
So, 18.10. 2:00 0.0 l/m2 in 6 Std. -
Ortszeit Niederschlagsmenge Niederschlagsart
Di, 20.10. 0:00 0.0 l/m2 in 1 Std. -
Mo, 19.10. 23:50 keine Meldung -
Mo, 19.10. 23:40 keine Meldung -
Mo, 19.10. 23:30 0.0 l/m2 in 1 Std. -
Mo, 19.10. 23:20 keine Meldung -
Mo, 19.10. 23:10 keine Meldung -
Mo, 19.10. 23:00 0.0 l/m2 in 1 Std. -
Mo, 19.10. 22:30 0.0 l/m2 in 1 Std. -
Mo, 19.10. 22:00 0.0 l/m2 in 1 Std. -
Mo, 19.10. 21:30 0.0 l/m2 in 1 Std. -
Mo, 19.10. 21:00 0.0 l/m2 in 1 Std. -
Ortszeit Stärke Spitze Richtung
km/h Bft. km/h Grad Sektor
Mo, 19.10. 20:00 9 2 22 80° O
Mo, 19.10. 14:00 11 2 18 120° SO
Mo, 19.10. 8:00 6 1 13 250° W
Mo, 19.10. 2:00 2 1 9 210° SW
So, 18.10. 20:00 7 2 18 10° N
So, 18.10. 14:00 6 1 13 260° W
So, 18.10. 8:00 4 1 7 300° NW
So, 18.10. 2:00 4 1 7 270° W
Ortszeit Stärke Spitze Richtung
km/h Bft. km/h Grad Sektor
Di, 20.10. 0:00 4 1 7 350° N
Mo, 19.10. 23:50 4 1 - 350° N
Mo, 19.10. 23:40 4 1 - 350° N
Mo, 19.10. 23:30 7 2 7 10° N
Mo, 19.10. 23:20 7 2 - 10° N
Mo, 19.10. 23:10 6 1 - 20° N
Mo, 19.10. 23:00 7 2 11 30° NO
Mo, 19.10. 22:30 7 2 11 40° NO
Mo, 19.10. 22:00 7 2 7 30° NO
Mo, 19.10. 21:30 7 2 7 20° N
Mo, 19.10. 21:00 4 1 11 320° NW
Ortszeit Untergrenze Bedeckung Gattung
total tief tief mittel hoch
Mo, 19.10. 20:00 - 0/8 0/8 - - -
Mo, 19.10. 14:00 990 m 7/8 7/8 - - -
Mo, 19.10. 8:00 1440 m 8/8 8/8 - - -
Mo, 19.10. 2:00 1500 m 8/8 8/8 - - -
So, 18.10. 20:00 1440 m 8/8 8/8 - - -
So, 18.10. 14:00 600 m 8/8 8/8 - - -
So, 18.10. 8:00 630 m 8/8 8/8 - - -
So, 18.10. 2:00 420 m 8/8 8/8 - - -
Ortszeit Bedeckungsgrad in Achtel und Wolkenuntergrenze
Di, 20.10. 0:00 2(10500m)
Mo, 19.10. 23:50 2(10500m)
Mo, 19.10. 23:40 3(10500m)
Mo, 19.10. 23:30 3(9000m) 5(10500m)
Mo, 19.10. 23:20 3(9000m) 5(10500m)
Mo, 19.10. 23:10 4(9000m) 6(10500m)
Mo, 19.10. 23:00 2(9000m) 7(10500m)
Mo, 19.10. 22:30 4(8700m) 8(10500m)
Mo, 19.10. 22:00 8(9000m) 8(10500m)
Mo, 19.10. 21:30 3(9000m) 4(9000m)
Mo, 19.10. 21:00 1(10500m)
Ortszeit Luftdruck NN (hPa) Tendenz (hPa in 3 Std.)
Mo, 19.10. 20:00 1022 - 0,1
Mo, 19.10. 14:00 1023 - 1,2
Mo, 19.10. 8:00 1025 0,0
Mo, 19.10. 2:00 1025 0,0
So, 18.10. 20:00 1024 + 0,9
So, 18.10. 14:00 1023 - 0,2
So, 18.10. 8:00 1023 + 0,7
So, 18.10. 2:00 1022 + 0,2
Ortszeit Luftdruck NN (hPa) Tendenz (hPa in 3 Std.)
Di, 20.10. 0:00 1023 - 0,5
Mo, 19.10. 23:50 1023 keine Meldung
Mo, 19.10. 23:40 1023 keine Meldung
Mo, 19.10. 23:30 1023 - 0,2
Mo, 19.10. 23:20 1023 keine Meldung
Mo, 19.10. 23:10 1023 keine Meldung
Mo, 19.10. 23:00 1023 0,0
Mo, 19.10. 22:30 1023 - 0,2
Mo, 19.10. 22:00 1023 + 0,1
Mo, 19.10. 21:30 1023 - 0,3
Mo, 19.10. 21:00 1023 - 0,1
Ortszeit Schneehöhe (cm)
Mo, 19.10. 20:00 0
Mo, 19.10. 14:00 0
Mo, 19.10. 8:00 0
Mo, 19.10. 2:00 0
So, 18.10. 20:00 0
So, 18.10. 14:00 0
So, 18.10. 8:00 0
So, 18.10. 2:00 0
Ortszeit Schneehöhe (cm)
Di, 20.10. 0:00 0
Mo, 19.10. 23:50 0
Mo, 19.10. 23:40 0
Mo, 19.10. 23:30 0
Mo, 19.10. 23:20 0
Mo, 19.10. 23:10 0
Mo, 19.10. 23:00 0
Mo, 19.10. 22:30 0
Mo, 19.10. 22:00 0
Mo, 19.10. 21:30 0
Mo, 19.10. 21:00 0
Link zu dieser Seite / Seite empfehlen

Das Wetter in ...